Regional Weather Roundup
Issued by NWS Boston, MA

Home | Current Version | Previous Version | Text Only | Print | Product List | Glossary On
Versions: 1 2 3 4 5 6 7 8 9 10 11 12 13 14 15 16 17 18 19 20 21 22 23 24 25 26 27 28 29 30 31 32 33 34 35 36 37 38 39 40 41 42 43 44 45 46 47 48 49 50
000
ASUS41 KBOX 210510
RWRBOX

REGIONAL WEATHER ROUNDUP
NATIONAL WEATHER SERVICE TAUNTON MA
100 AM EDT TUE OCT 21 2014

NOTE:  "FAIR" INDICATES FEW OR NO CLOUDS BELOW 12,000 FEET WITH NO
SIGNIFICANT WEATHER AND/OR OBSTRUCTIONS TO VISIBILITY.  THE FOLLOWING
OBSERVATION LOCATIONS DO NOT REPORT PRESENT WEATHER...PROVINCETOWN...
SMITHFIELD...BLOCK ISLAND...KEENE...AND OXFORD.

MAZALL-210600-
EASTERN MASSACHUSETTS

CITY           SKY/WX    TMP DP  RH WIND       PRES   REMARKS
BOSTON         CLOUDY    50  42  74 S6        30.01S
BEVERLY        CLOUDY    45  38  76 CALM      30.00S
LAWRENCE       CLOUDY    46  38  73 CALM      30.02S
BEDFORD        CLOUDY    44  39  82 CALM      29.99F
BLUE HILL        N/A     49  42  77 S12       29.99S
NORWOOD        CLOUDY    42  39  89 CALM      30.00S
MARSHFIELD     NOT AVBL
PLYMOUTH       CLOUDY    44  42  93 CALM      30.02R
TAUNTON        CLOUDY    41  39  93 CALM      30.01S
NEW BEDFORD    CLOUDY    44  42  93 CALM      30.01R
$$

MAZALL-210600-
CAPE COD AND THE ISLANDS

CITY           SKY/WX    TMP DP  RH WIND       PRES   REMARKS
FALMOUTH       CLOUDY    46  45  93 CALM      30.02S
HYANNIS        MOCLDY    47  43  86 CALM      30.02S
CHATHAM        CLOUDY    57  47  69 SW5       30.04S
PROVINCETOWN   CLOUDY    52  45  76 S5        30.04R
NANTUCKET      CLOUDY    59  48  67 SW9       30.04S
MARTHAS VNYRD  MOCLDY    58  47  66 SW10      30.02S
$$

MAZALL-210600-
CENTRAL AND WESTERN MASSACHUSETTS

CITY           SKY/WX    TMP DP  RH WIND       PRES   REMARKS
WORCESTER      CLOUDY    45  40  82 SW8       29.98S
FITCHBURG      CLOUDY    48  40  73 CALM      30.00S
ORANGE         CLOUDY    44  41  89 CALM      29.98S
SPRINGFIELD    CLOUDY    43  41  93 N2        29.97F
WESTFIELD      MOCLDY    45  41  86 NW3       29.97F
NORTH ADAMS    CLOUDY    49  37  63 E6        29.95S
PITTSFIELD     CLOUDY    42  39  89 CALM      29.94F
$$

RIZALL-210600-
RHODE ISLAND

CITY           SKY/WX    TMP DP  RH WIND       PRES   REMARKS
PROVIDENCE     CLOUDY    46  41  82 CALM      30.01S
NEWPORT        CLOUDY    56  48  74 CALM      30.00S
BLOCK ISLAND   MOCLDY    61  48  63 SW16      30.00S
SMITHFIELD     CLOUDY    39  34  81 CALM      29.99S
WESTERLY       CLOUDY    49  45  86 N3        30.00S
$$

CTZALL-210600-
CONNECTICUT

CITY           SKY/WX    TMP DP  RH WIND       PRES   REMARKS
BRADLEY INTL   CLOUDY    47  41  80 CALM      29.97S
HARTFORD       MOCLDY    47  43  86 SE7       29.98S
BRIDGEPORT     MOCLDY    61  48  62 SW15      29.97S
DANBURY        CLOUDY    45  30  55 CALM      29.98S
GROTON         MOCLDY    51  48  89 NW3       29.99S
NEW HAVEN      PTCLDY    63  49  60 SW10      29.97S
CHESTER        NOT AVBL
MERIDEN        MOCLDY    42  40  92 CALM      29.98S
WILLIMANTIC    PTCLDY    41  38  89 CALM      30.00F
OXFORD         CLOUDY    50  39  66 CALM      29.97F
$$

MEZ002-015-021-024-NHZ003-005-008-011-012-014-VTZ005-008-210600-
NORTHERN NEW ENGLAND

CITY           SKY/WX    TMP DP  RH WIND       PRES   REMARKS
PORTLAND ME    CLOUDY    48  39  71 CALM      30.01R
BANGOR ME      CLOUDY    39  33  79 CALM      30.01R
CONCORD NH     CLOUDY    48  37  65 SE3       30.00R
MANCHESTER NH  CLOUDY    50  36  58 S5        29.98S
NASHUA NH      CLOUDY    47  41  80 CALM      30.00S
PORTSMOUTH NH  CLOUDY    47  38  69 S1        30.00S
JAFFREY NH     CLOUDY    43  39  86 CALM      29.98F
KEENE NH       CLOUDY    45  36  70 CALM      29.98S
BURLINGTON VT  CLOUDY    45  38  76 CALM      29.93S
MT. WASHINGTON FOG       25  25 100 W32         N/A  VSB 1/16WCI   7
$$

NYZ052-076-210600-
EASTERN NEW YORK

CITY           SKY/WX    TMP DP  RH WIND       PRES   REMARKS
ALBANY         CLOUDY    52  38  58 S7        29.93S
NEW YORK CITY  CLOUDY    57  44  62 S5        29.96F
$$

ANZALL-210600-
MARINE OBSERVATIONS

STATION/POSITION TIME  TEMP    WIND        PRES    VSBY  WAVE
                       AIR SEA DIR/SP/G                  HT/PER
                 (UTC) (F)     (DEG/KT/KT) (MB)    (MI)  (FT/S)
BOSTON BUOY      NOT AVBL
BUZZARDS BAY     NOT AVBL
NANTUCKET SOUND  NOT AVBL
MASS BAY-STELLWA NOT AVBL
ISLE OF SHOALS   NOT AVBL
S OF BLOCK IS    NOT AVBL
$$

......................KEY.........................
  SKY/WX - SKY CONDITION/PRESENT WEATHER
  TMP    - TEMPERATURE IN FAHRENHEIT
  DWPT   - DEWPOINT IN FAHRENHEIT
  RH     - RELATIVE HUMIDITY IN PERCENT
  WIND   - DIRECTION AND SPEED IN MPH
  PRES   - MEAN SEA LEVEL PRESSURE IN INCHES OF HG
  WCI    - WIND CHILL INDEX
  VSB    - VISIBILITY IN MILES
  HX     - HEAT INDEX
  TC     - TEMPERATURE IN CELSIUS
  VRB    - VARIABLE WIND DIRECTION
  N/A    - NOT AVAILABLE



USA.gov is the U.S. government's official web portal to all federal, state and local government web resources and services.